www.pogodaiklimat.ru

Погода и климат >> Архив погоды >> Ирак >> Basrah


ПОГОДА в Basrah

  • Прогноз погоды в Basrah
  • Монитор погоды в Basrah
  • Климат города

АРХИВ ПОГОДЫ в Basrah

Время (UTC), дата Ветер
(напр.,м/с)
 
Видим.   Явления Облачность Т
(С)
Тd
(С)
f
(%)
Тe
(С)
Тes
(С)
Комфортность P
(гПа)
Po
(гПа)
Тmin
(С)
Tmax
(С)
R
(мм)
R24
(мм)
S
(см)
12 12.07 ЮВ 2 10 км ясно +48.8 +6.8 8 +46 +58 опасность
перегрева
993.6 994.0
15 12.07 СЗ 3 10 км ясно +48.2 +8.2 10 +46 +47 опасность
перегрева
992.7 993.0
18 12.07 С 6 10 км ясно +41.4 +8.1 14 +39 +39 очень
жарко
994.5 995.0 +51.0
21 12.07 СЗ 5 10 км ясно +38.0 +7.1 15 +36 +36 очень
жарко
994.4 994.0
00 13.07 С 4 10 км ясно +35.2 +8.6 20 +34 +34 очень
жарко
994.0 994.0
03 13.07 СЗ 3 10 км ясно +34.0 +9.8 23 +33 +34 жарко 994.9 995.0
06 13.07 СЗ 4 10 км ясно +39.2 +8.6 16 +37 +46 очень
жарко
995.2 995.0 +33.5
09 13.07 СЗ 6 10 км ясно +47.2 +4.8 8 +44 +53 опасность
перегрева
994.8 995.0
12 13.07 СЗ 8 10 км ясно +48.8 +5.2 8 +46 +48 опасность
перегрева
993.5 994.0
15 13.07 СЗ 8 10 км ясно +45.0 +7.5 11 +43 +43 опасность
перегрева
993.1 993.0
18 13.07 СЗ 5 10 км ясно +40.2 +10.0 16 +39 +39 очень
жарко
995.4 995.0 +49.4
21 13.07 СЗ 5 10 км ясно +36.2 +11.0 22 +35 +35 очень
жарко
995.4 995.0
06 14.07 СЗ 3 10 км ясно +39.6 +7.5 14 +37 +48 очень
жарко
996.5 997.0 +33.0
09 14.07 СЗ 4 10 км ясно +46.6 +4.8 8 +44 +58 опасность
перегрева
996.2 996.0
21 15.07 штиль 0 10 км ясно +36.2 +12.5 24 +36 +36 очень
жарко
995.5 996.0
09 16.07 СЗ 4 10 км 1/1 1200 м
[Cu hum]
+46.4 +7.3 10 +44 +57 опасность
перегрева
995.9 996.0
12 16.07 З 5 10 км ясно +47.6 +1.5 6 +44 +50 опасность
перегрева
994.5 995.0
15 16.07 СЗ 4 10 км 3/3 1200 м
[Cu hum]
+44.4 +10.1 13 +43 +43 опасность
перегрева
994.0 994.0
18 16.07 СЗ 5 10 км 1/0
[Ac trans Ci fib]
+40.2 +11.7 18 +39 +39 очень
жарко
995.8 996.0 +47.6
09 17.07 СЗ 7 10 км ясно +44.0 +10.5 14 +43 +49 опасность
перегрева
996.3 996.0
15 17.07 СЗ 4 10 км ясно +42.6 +6.1 11 +40 +40 очень
жарко
994.5 995.0
00 18.07 СЗ 3 10 км ясно +32.7 +7.1 20 +31 +31 жарко 995.5 996.0
03 18.07 СЗ 3 10 км ясно +31.0 +8.4 25 +30 +31 жарко 996.3 996.0
06 18.07 СЗ 5 10 км ясно +38.3 +5.7 14 +36 +43 очень
жарко
996.8 997.0 +30.5
09 18.07 СЗ 5 10 км ясно +43.0 +2.3 8 +39 +51 опасность
солнечного
удара
996.5 997.0
12 18.07 С 4 10 км ясно +44.6 +4.2 9 +42 +49 опасность
перегрева
995.0 995.0
15 18.07 СЗ 4 10 км ясно +43.0 +6.3 11 +40 +41 очень
жарко
994.7 995.0
18 18.07 СЗ 4 10 км ясно +39.0 +10.6 18 +38 +38 очень
жарко
996.3 996.0 +45.2
21 18.07 штиль 0 10 км ясно +36.0 +11.2 22 +35 +35 очень
жарко
996.3 996.0
00 19.07 штиль 0 10 км ясно +33.4 +10.4 24 +33 +33 жарко 996.1 996.0
03 19.07 СЗ 3 10 км ясно +31.2 +7.1 22 +30 +31 жарко 997.3 997.0
06 19.07 З 3 10 км ясно +38.4 +7.6 15 +36 +47 очень
жарко
997.9 998.0 +31.0
09 19.07 СЗ 3 10 км ясно +45.6 +8.9 11 +44 +61 опасность
перегрева
997.2 997.0

 

Местоположение метеостанции Basrah (Ирак): широта 30.57 долгота 47.78 высота над уровнем моря 2 м.

В архиве по умолчанию представлена погода в Basrah за последнюю неделю. Архивные данные за месяц целиком и за предыдущие месяцы, начиная с января 2011 года, Вы можете получить, выбрав интересующий диапазон дат из раскрывающегося списка и нажав кнопку "Ввод!".


*Определитесь, кто Вы:
робот инопланетянин человек

Внимание! Время в таблицах - всемирное. Для получения местного времени необходимо прибавить поправку, которая в Basrah равна 3 ч.

Смотрите также архив погоды в соседних городах и на ближайших метеорологических станциях:

Погода в Basrah Airport (Ирак) (6 км)
Погода в Abadan (Иран) (50 км)
Погода в Abdaly (Кувейт) (55 км)
Погода в Sabriyah (Кувейт) (91 км)
Погода в Mitribah (Кувейт) (92 км)
Погода в Fao (Ирак) (95 км)
Погода в Bubiyan (Кувейт) (106 км)
Погода в Jal Aliyah (Кувейт) (108 км)
Погода в Ahwaz (Иран) (120 км)
Погода в Failaka Island (Кувейт) (131 км)

Пояснения к столбцам:

Ветер - указаны скорость ветра в м/с - средняя за 10 мин, порывы в срок и между сроками (в фигурных скобках) и направление, откуда дует ветер: С - северный, СВ - северо-восточный, В - восточный, ЮВ - юго-восточный, Ю - южный, ЮЗ - юго-западный, З - западный, СЗ - северо-западный.
Видимость - горизонтальная дальность видимости в метрах или километрах. При видимости от 1 до 10 км при отсутствии осадков обычно наблюдается дымка, при ухудшении видимости до 1 км и менее - туман. В сухую погоду видимость может ухудшаться дымом, пылью или мглою.
Явления - указаны атмосферные явления, наблюдавшиеся в срок или в последний час перед сроком; фигурными скобками обозначены явления, наблюдавшиеся между сроками (за 1-3 часа до срока); квадратными скобками обозначены град или гололедные отложения с указанием их диаметра в мм.
Облачность - указаны через наклонную черту общая и нижняя облачность в баллах и высота нижней границы облаков в метрах; квадратными скобками обозначены формы облаков: Ci - перистые, Cs - перисто-слоистые, Cc - перисто-кучевые, Ac - высококучевые, As - высокослоистые, Sc - слоисто-кучевые, Ns - слоисто-дождевые, Cu - кучевые, Cb - кучево-дождевые. Подробнее классификацию облаков см. в Атласе облаков (PDF).
T - Температура воздуха - температура, измеренная на высоте 2 м над землей.
Td - Температура точки росы - температура, при понижении до которой содержащийся в воздухе водяной пар достигнет насыщения.
f - Относительная влажность воздуха - влажноcть воздуха, измеренная на высоте 2 м над землей.
Te - Эффективная температура - температура, которую ощущает одетый по сезону человек в тени. Характеристика душности погоды. При расчете учитывается влияние влажности воздуха и скорости ветра на теплоощущения человека.
Tes - Эффективная температура на солнце - температура, которую ощущает человек, с поправкой на солнечный нагрев. Характеристика знойности погоды. Зависит от высоты солнца над горизонтом, облачности и скорости ветра. Ночью, в пасмурную погоду, а также при ветре 12 м/с и более поправка равна нулю.
P - Атмосферное давление - приведенное к уровню моря атмосферное давление.
Po - Атмосферное давление - измеренное на уровне метеостанции атмосферное давление.
Tmin - Минимальная температура - минимум температуры воздуха на высоте 2 м над землей.
Tmax - Максимальная температура - максимум температуры воздуха на высоте 2 м над землей.
R - Количество осадков - Количество выпавших осадков за период времени, мм. При наведении курсора мыши на число - период времени, за который выпало указанное количество осадков.
R24 - Количество осадков - Количество выпавших осадков за 24 часа, мм.
S - Снежный покров - Высота снежного покрова, см. При наведении курсора мыши на число - состояние снежного покрова и степень покрытия местности в баллах.